When you browse on this site, cookies collect data to enhance your experience and personalize the content and advertising you see.
Visit our Privacy Policy to learn more. By continuing to use the site, you agree to this use of cookies and data.
  • In Schweiz
  • Länderverzeichnis
  • Für 7 Tage
  • Wassertemperatur
  • Wetterkarte
  • Widgets
  • user-avatar
    Anmelden

    Stündliche Wetter Ngosi

    Heute, 2 April, Donnerstag

    Zeit Temperatur Niederschläge Wind Luftdruck Luftfeuchtigkeit
    00:00 +14°C° 0 mm 0 m/S 617 mmHg 95%
    01:00 +15°C° 0 mm 1 m/S 617 mmHg 95%
    02:00 +15°C° 0 mm 1 m/S 616 mmHg 95%
    03:00 +13°C° 0 mm 0 m/S 616 mmHg 94%
    04:00 +13°C° 0 mm 0 m/S 616 mmHg 94%
    05:00 +13°C° 0 mm 0 m/S 616 mmHg 94%
    06:00 +15°C° 0 mm 0 m/S 617 mmHg 92%
    07:00 +16°C° 0 mm 0 m/S 618 mmHg 89%
    08:00 +18°C° 0 mm 0 m/S 619 mmHg 87%
    09:00 +22°C° 0 mm 1 m/S 619 mmHg 77%
    10:00 +24°C° 0 mm 1 m/S 620 mmHg 66%
    11:00 +26°C° 0 mm 2 m/S 620 mmHg 56%
    12:00 +26°C° 0.1 mm 2 m/S 619 mmHg 57%
    13:00 +27°C° 0.1 mm 2 m/S 618 mmHg 57%
    14:00 +27°C° 0.1 mm 2 m/S 618 mmHg 58%
    15:00 +26°C° 0.5 mm 2 m/S 617 mmHg 65%
    16:00 +25°C° 0.5 mm 1 m/S 617 mmHg 73%
    17:00 +24°C° 0.5 mm 1 m/S 617 mmHg 80%
    18:00 +22°C° 1.2 mm 1 m/S 617 mmHg 84%
    19:00 +20°C° 1.2 mm 1 m/S 616 mmHg 88%
    20:00 +16°C° 1.2 mm 0 m/S 616 mmHg 92%
    21:00 +16°C° 0.4 mm 0 m/S 616 mmHg 92%
    22:00 +16°C° 0.4 mm 0 m/S 617 mmHg 92%
    23:00 +15°C° 0.4 mm 0 m/S 617 mmHg 93%

    Morgen, 3 April, Freitag

    Zeit Temperatur Niederschläge Wind Luftdruck Luftfeuchtigkeit
    00:00 +15°C° 0 mm 0 m/S 616 mmHg 93%
    01:00 +15°C° 0 mm 0 m/S 616 mmHg 93%
    02:00 +14°C° 0 mm 0 m/S 616 mmHg 93%
    03:00 +14°C° 0.1 mm 0 m/S 616 mmHg 94%
    04:00 +14°C° 0.1 mm 0 m/S 616 mmHg 94%
    05:00 +14°C° 0.1 mm 0 m/S 616 mmHg 94%
    06:00 +15°C° 0 mm 0 m/S 617 mmHg 92%
    07:00 +17°C° 0 mm 0 m/S 618 mmHg 90%
    08:00 +19°C° 0 mm 0 m/S 619 mmHg 88%
    09:00 +22°C° 0.5 mm 1 m/S 619 mmHg 82%
    10:00 +23°C° 0.5 mm 1 m/S 620 mmHg 76%
    11:00 +25°C° 0.5 mm 2 m/S 620 mmHg 70%
    12:00 +25°C° 0.3 mm 2 m/S 619 mmHg 67%
    13:00 +26°C° 0.3 mm 2 m/S 619 mmHg 64%
    14:00 +26°C° 0.3 mm 2 m/S 618 mmHg 60%
    15:00 +25°C° 0.5 mm 1 m/S 618 mmHg 69%
    16:00 +24°C° 0.5 mm 1 m/S 617 mmHg 77%
    17:00 +23°C° 0.5 mm 1 m/S 617 mmHg 85%
    18:00 +21°C° 0.7 mm 1 m/S 617 mmHg 89%
    19:00 +20°C° 0.7 mm 1 m/S 617 mmHg 92%
    20:00 +18°C° 0.7 mm 1 m/S 617 mmHg 96%
    21:00 +18°C° 0.1 mm 1 m/S 617 mmHg 96%
    22:00 +16°C° 0.1 mm 1 m/S 617 mmHg 96%
    23:00 +16°C° 0.1 mm 1 m/S 617 mmHg 96%

    übermorgen, 4 April, Samstag

    Zeit Temperatur Niederschläge Wind Luftdruck Luftfeuchtigkeit
    00:00 +16°C° 0 mm 1 m/S 617 mmHg 96%
    01:00 +16°C° 0 mm 1 m/S 617 mmHg 96%
    02:00 +15°C° 0 mm 1 m/S 617 mmHg 96%
    03:00 +15°C° 0 mm 1 m/S 617 mmHg 97%
    04:00 +14°C° 0 mm 0 m/S 617 mmHg 97%
    05:00 +14°C° 0 mm 0 m/S 617 mmHg 97%
    06:00 +16°C° 0 mm 1 m/S 618 mmHg 95%
    07:00 +18°C° 0 mm 1 m/S 619 mmHg 94%
    08:00 +19°C° 0 mm 1 m/S 620 mmHg 92%
    09:00 +19°C° 0.1 mm 1 m/S 620 mmHg 90%
    10:00 +20°C° 0.1 mm 1 m/S 620 mmHg 87%
    11:00 +21°C° 0.1 mm 1 m/S 620 mmHg 84%
    12:00 +22°C° 0.4 mm 1 m/S 619 mmHg 81%
    13:00 +23°C° 0.4 mm 1 m/S 619 mmHg 78%
    14:00 +24°C° 0.4 mm 1 m/S 619 mmHg 75%
    15:00 +22°C° 0.7 mm 1 m/S 618 mmHg 81%
    16:00 +21°C° 0.7 mm 1 m/S 618 mmHg 87%
    17:00 +20°C° 0.7 mm 1 m/S 617 mmHg 93%
    18:00 +20°C° 0.1 mm 1 m/S 618 mmHg 94%
    19:00 +17°C° 0.1 mm 0 m/S 618 mmHg 94%
    20:00 +16°C° 0.1 mm 0 m/S 618 mmHg 95%
    21:00 +16°C° 0 mm 0 m/S 618 mmHg 95%
    22:00 +15°C° 0 mm 0 m/S 618 mmHg 95%
    23:00 +14°C° 0 mm 0 m/S 618 mmHg 96%

    5 April, Sonntag

    Zeit Temperatur Niederschläge Wind Luftdruck Luftfeuchtigkeit
    00:00 +14°C° 0 mm 0 m/S 618 mmHg 96%
    01:00 +14°C° 0 mm 0 m/S 617 mmHg 96%
    02:00 +14°C° 0 mm 0 m/S 617 mmHg 96%
    03:00 +14°C° 0 mm 0 m/S 617 mmHg 96%
    04:00 +14°C° 0 mm 0 m/S 617 mmHg 96%
    05:00 +13°C° 0 mm 0 m/S 617 mmHg 96%
    06:00 +15°C° 0 mm 0 m/S 618 mmHg 94%
    07:00 +16°C° 0 mm 0 m/S 619 mmHg 92%
    08:00 +17°C° 0 mm 0 m/S 620 mmHg 90%
    09:00 +20°C° 0.1 mm 0 m/S 621 mmHg 80%
    10:00 +22°C° 0.1 mm 0 m/S 621 mmHg 70%
    11:00 +26°C° 0.1 mm 1 m/S 622 mmHg 59%
    12:00 +26°C° 0.7 mm 1 m/S 621 mmHg 64%
    13:00 +25°C° 0.7 mm 1 m/S 620 mmHg 69%
    14:00 +24°C° 0.7 mm 1 m/S 619 mmHg 74%
    15:00 +24°C° 0.9 mm 1 m/S 619 mmHg 77%
    16:00 +23°C° 0.9 mm 1 m/S 618 mmHg 81%
    17:00 +23°C° 0.9 mm 1 m/S 618 mmHg 85%
    18:00 +19°C° 0.7 mm 0 m/S 618 mmHg 87%
    19:00 +17°C° 0.7 mm 0 m/S 618 mmHg 90%
    20:00 +16°C° 0.7 mm 0 m/S 618 mmHg 93%
    21:00 +15°C° 0.1 mm 0 m/S 618 mmHg 93%
    22:00 +15°C° 0.1 mm 0 m/S 618 mmHg 93%
    23:00 +15°C° 0.1 mm 0 m/S 618 mmHg 93%

    6 April, Montag

    Zeit Temperatur Niederschläge Wind Luftdruck Luftfeuchtigkeit
    00:00 +14°C° 0 mm 0 m/S 618 mmHg 93%
    01:00 +14°C° 0 mm 0 m/S 617 mmHg 93%
    02:00 +14°C° 0 mm 0 m/S 617 mmHg 94%
    03:00 +14°C° 0 mm 0 m/S 617 mmHg 94%
    04:00 +13°C° 0 mm 0 m/S 617 mmHg 94%
    05:00 +13°C° 0 mm 0 m/S 617 mmHg 94%
    06:00 +15°C° 0 mm 0 m/S 618 mmHg 92%
    07:00 +16°C° 0 mm 0 m/S 619 mmHg 90%
    08:00 +18°C° 0 mm 0 m/S 620 mmHg 88%
    09:00 +20°C° 0.2 mm 0 m/S 621 mmHg 77%
    10:00 +22°C° 0.2 mm 0 m/S 621 mmHg 67%
    11:00 +27°C° 0.2 mm 1 m/S 622 mmHg 57%
    12:00 +26°C° 0.2 mm 1 m/S 621 mmHg 58%
    13:00 +26°C° 0.2 mm 1 m/S 620 mmHg 59%
    14:00 +26°C° 0.2 mm 2 m/S 619 mmHg 60%
    15:00 +25°C° 0.5 mm 1 m/S 619 mmHg 67%
    16:00 +24°C° 0.5 mm 1 m/S 618 mmHg 74%
    17:00 +23°C° 0.5 mm 1 m/S 618 mmHg 82%
    18:00 +21°C° 0.3 mm 1 m/S 618 mmHg 85%
    19:00 +18°C° 0.3 mm 0 m/S 618 mmHg 88%
    20:00 +16°C° 0.3 mm 0 m/S 617 mmHg 91%
    21:00 +15°C° 0 mm 0 m/S 618 mmHg 91%
    22:00 +15°C° 0 mm 0 m/S 618 mmHg 92%
    23:00 +16°C° 0 mm 1 m/S 618 mmHg 93%

    7 April, Dienstag

    Zeit Temperatur Niederschläge Wind Luftdruck Luftfeuchtigkeit
    00:00 +16°C° 0 mm 1 m/S 617 mmHg 93%
    01:00 +15°C° 0 mm 1 m/S 617 mmHg 93%
    02:00 +15°C° 0 mm 1 m/S 617 mmHg 93%
    03:00 +15°C° 0 mm 1 m/S 617 mmHg 93%
    04:00 +15°C° 0 mm 1 m/S 617 mmHg 93%
    05:00 +15°C° 0 mm 1 m/S 617 mmHg 93%
    06:00 +15°C° 0 mm 0 m/S 618 mmHg 91%
    07:00 +16°C° 0 mm 0 m/S 619 mmHg 90%
    08:00 +18°C° 0 mm 0 m/S 620 mmHg 88%
    09:00 +20°C° 0.4 mm 0 m/S 620 mmHg 81%
    10:00 +22°C° 0.4 mm 0 m/S 621 mmHg 74%
    11:00 +24°C° 0.4 mm 0 m/S 621 mmHg 67%
    12:00 +26°C° 0.5 mm 1 m/S 620 mmHg 64%
    13:00 +26°C° 0.5 mm 1 m/S 619 mmHg 60%
    14:00 +26°C° 0.5 mm 2 m/S 618 mmHg 57%
    15:00 +25°C° 0.5 mm 1 m/S 618 mmHg 66%
    16:00 +24°C° 0.5 mm 1 m/S 618 mmHg 75%
    17:00 +23°C° 0.5 mm 1 m/S 617 mmHg 83%
    18:00 +22°C° 0.6 mm 1 m/S 617 mmHg 86%
    19:00 +20°C° 0.6 mm 1 m/S 617 mmHg 88%
    20:00 +18°C° 0.6 mm 1 m/S 617 mmHg 90%
    21:00 +18°C° 0 mm 1 m/S 617 mmHg 91%
    22:00 +16°C° 0 mm 1 m/S 617 mmHg 92%
    23:00 +16°C° 0 mm 1 m/S 617 mmHg 92%
    Mehr zeigen